FW2285 Weather Reports


Display with metric or nautical units.
time (UTC)temp
F
wind
direction
speed
MPH
gust
MPH
rain 1hr
in
rain 24hr
in
rain mn
in
humidity
%
barometer
mb
20260507123018 45 296 0.0 1.0 0.00 0.00 0.00 58 1018.3
20260507121517 42 296 0.0 0.0 0.00 0.00 0.00 60 1018.3
20260507120016 40 296 0.0 0.0 0.00 0.00 0.00 61 1018.0
20260507114515 38 296 0.0 0.0 0.00 0.00 0.00 61 1018.1
20260507113018 38 296 0.0 0.0 0.00 0.00 0.00 61 1018.1
20260507111517 38 296 0.0 0.0 0.00 0.00 0.00 61 1018.1
20260507110025 38 296 0.0 0.0 0.00 0.00 0.00 61 1017.8
20260507104513 38 296 0.0 0.0 0.00 0.00 0.00 61 1017.9
20260507103013 38 296 0.0 0.0 0.00 0.00 0.00 61 1017.9
20260507101512 38 296 0.0 0.0 0.00 0.00 0.00 61 1017.9
20260507100018 38 296 0.0 0.0 0.00 0.00 0.00 61 1017.9
20260507094509 39 296 0.0 0.0 0.00 0.00 0.00 61 1018.1
20260507093009 38 296 0.0 0.0 0.00 0.00 0.00 61 1018.2
20260507091507 39 296 0.0 0.0 0.00 0.00 0.00 61 1018.2
20260507090007 39 296 0.0 0.0 0.00 0.00 0.00 60 1018.2
20260507084503 39 296 0.0 0.0 0.00 0.00 0.00 60 1018.3
20260507083003 39 296 0.0 0.0 0.00 0.00 0.00 60 1018.4
20260507081505 40 296 0.0 0.0 0.00 0.00 0.00 60 1018.4
20260507080103 40 296 0.0 0.0 0.00 0.00 0.00 61 1018.3
20260507074612 40 296 0.0 0.0 0.00 0.00 0.00 61 1018.3
20260507073056 41 296 0.0 0.0 0.00 0.00 0.00 61 1018.5
20260507071555 41 296 0.0 0.0 0.00 0.00 0.00 61 1018.6
20260507070106 42 296 0.0 0.0 0.00 0.01 0.00 61 1018.8
20260507064548 43 296 0.0 0.0 0.00 0.01 0.00 61 1019.0
20260507063055 44 296 0.0 0.0 0.00 0.01 0.00 60 1019.0
20260507061548 44 296 0.0 0.0 0.00 0.01 0.00 59 1019.1
20260507060046 45 296 0.0 0.0 0.00 0.03 0.00 58 1019.2
20260507054543 45 296 0.0 0.0 0.00 0.03 0.00 58 1019.1
20260507053040 45 296 0.0 0.0 0.00 0.03 0.00 59 1019.1
20260507051538 45 296 0.0 0.0 0.00 0.03 0.00 59 1019.1
20260507050037 45 296 0.0 0.0 0.00 0.04 0.03 59 1019.1
20260507044535 45 296 0.0 0.0 0.00 0.04 0.03 59 1019.1
20260507043037 45 296 0.0 0.0 0.00 0.04 0.03 59 1019.0
20260507041534 45 296 0.0 0.0 0.00 0.04 0.03 60 1019.2
20260507040034 44 296 0.0 0.0 0.00 0.04 0.03 59 1019.3
20260507034537 44 296 0.0 0.0 0.00 0.04 0.03 60 1019.4
20260507033033 44 296 0.0 0.0 0.00 0.04 0.03 59 1019.2
20260507031531 44 296 0.0 0.0 0.00 0.04 0.03 56 1019.3
20260507030031 44 296 0.0 0.0 0.00 0.04 0.03 56 1019.2
20260507024530 45 296 0.0 0.0 0.00 0.04 0.03 54 1019.1
20260507023029 46 296 0.0 0.0 0.00 0.04 0.03 52 1019.0
20260507021530 46 296 0.0 0.0 0.00 0.04 0.03 50 1018.9
20260507020039 48 296 0.0 0.0 0.00 0.04 0.03 46 1018.7
20260507014528 48 296 0.0 0.0 0.00 0.04 0.03 45 1018.7
20260507013044 50 296 0.0 0.0 0.00 0.04 0.03 40 1018.7
20260507011527 51 296 0.0 0.0 0.00 0.04 0.03 36 1018.5
20260507010034 53 296 0.0 0.0 0.00 0.04 0.03 31 1018.4
20260507004526 56 296 0.0 2.0 0.00 0.04 0.03 25 1018.6
20260507003025 57 291 0.0 7.0 0.00 0.04 0.03 26 1018.5
20260507001529 57 340 1.0 4.0 0.00 0.04 0.03 23 1018.5
20260507000025 58 309 2.0 5.0 0.00 0.04 0.03 23 1018.6
20260506234530 59 299 1.0 5.0 0.00 0.04 0.03 21 1018.6
20260506233027 59 260 1.0 9.0 0.00 0.04 0.03 24 1018.6
20260506231527 59 330 2.0 8.0 0.00 0.04 0.03 22 1018.6
20260506230026 60 22 1.0 4.0 0.00 0.04 0.03 24 1018.5
20260506224521 60 9 2.0 6.0 0.00 0.04 0.03 23 1018.6
20260506223021 60 5 1.0 7.0 0.00 0.04 0.03 20 1018.6
20260506221520 60 311 2.0 5.0 0.00 0.04 0.03 24 1018.7
20260506220027 60 38 3.0 9.0 0.00 0.04 0.03 23 1018.8
20260506214519 60 313 4.0 7.0 0.00 0.04 0.03 22 1018.8
20260506213018 60 258 2.0 7.0 0.00 0.04 0.03 25 1019.0
20260506211525 60 340 2.0 6.0 0.00 0.04 0.03 26 1019.2
20260506210025 60 306 2.0 5.0 0.00 0.04 0.03 27 1019.3
20260506204516 60 301 1.0 5.0 0.00 0.04 0.03 24 1019.5
20260506203014 60 234 0.0 6.0 0.00 0.04 0.03 28 1019.7
20260506201513 60 344 1.0 6.0 0.00 0.04 0.03 28 1019.8
20260506200031 59 259 2.0 6.0 0.00 0.04 0.03 27 1019.9
20260506194511 59 65 1.0 8.0 0.00 0.04 0.03 24 1020.1
20260506193009 59 248 2.0 9.0 0.00 0.04 0.03 27 1020.2
20260506191508 58 14 1.0 6.0 0.00 0.04 0.03 24 1020.4
20260506190007 58 338 2.0 11.0 0.00 0.05 0.03 26 1020.3
20260506184506 57 64 2.0 8.0 0.00 0.05 0.03 27 1020.7
20260506183005 57 245 2.0 6.0 0.00 0.05 0.03 29 1020.9
20260506181504 56 81 2.0 7.0 0.00 0.05 0.03 26 1021.1
20260506180005 56 328 1.0 8.0 0.00 0.05 0.03 29 1021.1
20260506174501 56 350 3.0 8.0 0.00 0.05 0.03 24 1021.0
20260506173001 56 348 1.0 5.0 0.00 0.05 0.03 27 1021.0
20260506171610 57 302 2.0 9.0 0.00 0.05 0.03 26 1020.9
20260506170112 57 304 3.0 8.0 0.00 0.05 0.03 26 1021.1
20260506164623 55 303 3.0 8.0 0.00 0.05 0.03 29 1021.0
20260506164502 55 311 3.0 8.0 0.00 0.05 0.03 27 1021.1
20260506163105 56 355 2.0 9.0 0.00 0.05 0.03 28 1021.1
20260506161554 56 333 2.0 6.0 0.00 0.05 0.03 29 1020.8
20260506160105 54 322 2.0 5.0 0.00 0.08 0.03 33 1020.6
20260506154553 54 248 2.0 11.0 0.00 0.08 0.03 29 1020.5
20260506153048 54 48 2.0 9.0 0.00 0.08 0.03 31 1020.5
20260506151547 54 84 3.0 7.0 0.00 0.08 0.03 33 1020.5
20260506150045 54 306 2.0 5.0 0.00 0.16 0.03 34 1020.5
20260506144543 53 355 2.0 5.0 0.00 0.16 0.03 38 1020.4
20260506143038 52 360 1.0 3.0 0.00 0.16 0.03 43 1020.4
20260506141544 51 38 0.0 5.0 0.00 0.16 0.03 42 1020.1
20260506140033 50 319 2.0 5.0 0.00 0.25 0.03 44 1019.9
20260506134531 50 328 0.0 5.0 0.00 0.25 0.03 45 1020.0
20260506133031 50 248 0.0 3.0 0.00 0.25 0.03 46 1019.8
20260506131534 49 317 0.0 3.0 0.00 0.25 0.03 51 1019.5
20260506130025 48 281 0.0 2.0 0.00 0.32 0.03 54 1019.4
20260506124526 47 281 0.0 1.0 0.00 0.32 0.03 56 1018.9